GW0890 Weather Reports


Display with metric or nautical units.
time (UTC)temp
F
wind
direction
speed
MPH
gust
MPH
rain 1hr
in
rain 24hr
in
rain mn
in
humidity
%
barometer
mb
20260508173032 69 116 8.0 14.0 0.00 0.00 0.00 38 1013.3
20260508171529 68 76 6.0 11.0 0.00 0.00 0.00 41 1013.5
20260508170107 68 306 5.0 16.0 0.00 0.00 0.00 42 1013.8
20260508164559 68 355 7.0 14.0 0.00 0.00 0.00 42 1014.1
20260508163052 67 39 6.0 11.0 0.00 0.00 0.00 42 1014.3
20260508161549 66 76 3.0 11.0 0.00 0.00 0.00 47 1014.8
20260508160046 65 11 7.0 14.0 0.00 0.00 0.00 44 1015.0
20260508154544 64 63 4.0 14.0 0.00 0.00 0.00 46 1015.1
20260508153026 64 51 6.0 11.0 0.00 0.00 0.00 46 1015.1
20260508151511 63 317 6.0 9.0 0.00 0.00 0.00 49 1015.0
20260508150055 61 61 7.0 11.0 0.00 0.00 0.00 53 1015.2
20260508144554 60 98 6.0 9.0 0.00 0.00 0.00 53 1015.2
20260508143057 59 38 7.0 12.0 0.00 0.00 0.00 55 1015.3
20260508141600 57 24 3.0 11.0 0.00 0.00 0.00 58 1015.2
20260508140045 56 58 4.0 7.0 0.00 0.00 0.00 63 1015.3
20260508134542 54 51 3.0 7.0 0.00 0.00 0.00 67 1015.4
20260508133037 52 328 1.0 4.0 0.00 0.00 0.00 72 1015.6
20260508131533 50 310 0.0 5.0 0.00 0.00 0.00 76 1015.6
20260508130039 49 292 1.0 5.0 0.00 0.00 0.00 85 1015.7
20260508124536 44 169 0.0 0.0 0.00 0.00 0.00 95 1015.9
20260508123028 42 168 0.0 0.0 0.00 0.00 0.00 96 1015.7
20260508121626 40 167 0.0 0.0 0.00 0.00 0.00 96 1015.7
20260508120029 38 167 0.0 0.0 0.00 0.00 0.00 96 1015.6
20260508114530 37 167 0.0 0.0 0.00 0.00 0.00 96 1015.6
20260508113028 36 167 0.0 0.0 0.00 0.00 0.00 95 1015.6
20260508111526 35 166 0.0 0.0 0.00 0.00 0.00 95 1015.5
20260508110023 34 166 0.0 0.0 0.00 0.00 0.00 95 1015.3
20260508104524 34 166 0.0 0.0 0.00 0.00 0.00 95 1015.2
20260508103025 34 166 0.0 0.0 0.00 0.00 0.00 95 1015.1
20260508101520 34 165 0.0 0.0 0.00 0.00 0.00 95 1014.9
20260508100117 34 165 0.0 0.0 0.00 0.00 0.00 95 1014.7
20260508094546 34 165 0.0 0.0 0.00 0.00 0.00 95 1014.7
20260508093045 35 165 0.0 0.0 0.00 0.00 0.00 94 1014.7
20260508091543 35 165 0.0 0.0 0.00 0.00 0.00 94 1014.7
20260508090040 35 165 0.0 0.0 0.00 0.00 0.00 94 1014.6
20260508084641 35 165 0.0 0.0 0.00 0.00 0.00 94 1014.6
20260508083042 35 165 0.0 0.0 0.00 0.00 0.00 94 1014.5
20260508081510 36 164 0.0 0.0 0.00 0.00 0.00 94 1014.6
20260508080005 36 164 0.0 0.0 0.00 0.00 0.00 94 1014.4
20260508074502 36 164 0.0 0.0 0.00 0.00 0.00 94 1014.5
20260508073004 36 164 0.0 0.0 0.00 0.00 0.00 94 1014.3
20260508071604 37 164 0.0 0.0 0.00 0.00 0.00 93 1014.3
20260508070059 37 164 0.0 0.0 0.00 0.00 0.00 93 1014.3
20260508064555 37 163 0.0 4.0 0.00 0.00 0.00 93 1014.4
20260508063103 37 162 0.0 0.0 0.00 0.00 0.00 92 1014.5
20260508061551 38 162 0.0 2.0 0.00 0.00 0.00 92 1014.5
20260508060050 38 162 0.0 0.0 0.00 0.00 0.00 92 1014.6
20260508054520 38 162 0.0 2.0 0.00 0.00 0.00 92 1014.4
20260508053016 39 160 0.0 2.0 0.00 0.00 0.00 91 1014.4
20260508051513 39 159 0.0 0.0 0.00 0.00 0.00 91 1014.4
20260508050010 39 159 1.0 3.0 0.00 0.00 0.00 90 1014.4
20260508044508 40 159 0.0 0.0 0.00 0.00 0.00 90 1014.5
20260508043006 40 159 0.0 0.0 0.00 0.00 0.00 89 1014.5
20260508041602 41 158 0.0 0.0 0.00 0.00 0.00 88 1014.4
20260508040059 41 158 0.0 0.0 0.00 0.00 0.00 87 1014.4
20260508034611 42 158 0.0 0.0 0.00 0.00 0.00 87 1014.3
20260508033054 43 157 0.0 0.0 0.00 0.00 0.00 84 1014.4
20260508031550 43 157 0.0 2.0 0.00 0.00 0.00 84 1014.4
20260508030047 44 157 0.0 4.0 0.00 0.00 0.00 83 1014.3
20260508024544 45 157 0.0 4.0 0.00 0.00 0.00 79 1014.2
20260508023039 46 155 0.0 0.0 0.00 0.00 0.00 76 1014.0
20260508021505 48 155 0.0 0.0 0.00 0.00 0.00 74 1013.8
20260508020004 49 155 0.0 2.0 0.00 0.00 0.00 71 1013.7
20260508014533 50 155 1.0 2.0 0.00 0.00 0.00 69 1013.3
20260508013039 51 155 0.0 2.0 0.00 0.00 0.00 65 1013.2
20260508011502 53 155 0.0 0.0 0.00 0.00 0.00 61 1012.9
20260508010002 56 155 0.0 2.0 0.00 0.00 0.00 53 1012.6
20260508004600 57 155 0.0 3.0 0.00 0.00 0.00 48 1012.7
20260508003059 58 156 2.0 5.0 0.00 0.00 0.00 46 1012.5
20260508001621 60 157 0.0 2.0 0.00 0.00 0.00 44 1012.3
20260508000100 61 144 0.0 6.0 0.00 0.00 0.00 39 1012.0
20260507234556 63 182 1.0 5.0 0.00 0.00 0.00 36 1011.8
20260507233056 63 146 1.0 7.0 0.00 0.00 0.00 36 1011.6
20260507231556 63 155 3.0 9.0 0.00 0.00 0.00 35 1011.5
20260507230053 64 140 4.0 11.0 0.00 0.00 0.00 34 1011.6
20260507224557 64 178 6.0 10.0 0.00 0.00 0.00 35 1011.5
20260507223051 64 108 5.0 13.0 0.00 0.00 0.00 36 1011.4
20260507221549 64 154 6.0 18.0 0.00 0.00 0.00 38 1011.3
20260507220049 65 54 6.0 19.0 0.00 0.00 0.00 38 1011.2
20260507214523 64 121 4.0 11.0 0.00 0.00 0.00 39 1011.1
20260507213018 66 102 4.0 13.0 0.00 0.00 0.00 43 1011.0
20260507211515 64 77 4.0 11.0 0.00 0.00 0.00 43 1010.8
20260507210014 64 55 5.0 15.0 0.00 0.00 0.00 41 1010.7
20260507204512 65 101 6.0 13.0 0.00 0.00 0.00 42 1010.7
20260507203011 65 55 9.0 14.0 0.00 0.00 0.00 41 1010.5
20260507201510 65 360 10.0 23.0 0.00 0.00 0.00 43 1010.6
20260507200007 65 24 6.0 14.0 0.00 0.00 0.00 43 1010.8
20260507194505 65 154 5.0 12.0 0.00 0.00 0.00 43 1010.9
20260507193003 63 13 6.0 11.0 0.00 0.00 0.00 44 1011.0
20260507191503 63 121 2.0 11.0 0.00 0.00 0.00 46 1011.3
20260507190059 63 93 4.0 10.0 0.00 0.00 0.00 45 1011.4
20260507184605 64 71 7.0 15.0 0.00 0.00 0.00 46 1011.5
20260507183056 64 58 8.0 13.0 0.00 0.00 0.00 49 1011.5
20260507181603 63 166 6.0 13.0 0.00 0.00 0.00 48 1011.6
20260507180051 62 165 5.0 13.0 0.00 0.00 0.00 49 1011.7
20260507174555 63 66 8.0 13.0 0.00 0.00 0.00 50 1011.7